TimeCDT,TemperatureF,Dew PointF,Humidity,Sea Level PressureIn,VisibilityMPH,Wind Direction,Wind SpeedMPH,Gust SpeedMPH,PrecipitationIn,Events,Conditions,WindDirDegrees,DateUTC
12:53 AM,81.0,69.1,67,29.90,10.0,SSE,12.7,-,N/A,,Partly Cloudy,160,2013-06-24 05:53:00
1:53 AM,80.1,69.1,69,29.91,9.0,South,11.5,-,N/A,,Clear,170,2013-06-24 06:53:00
2:53 AM,77.0,69.1,76,29.92,9.0,SE,9.2,-,N/A,,Partly Cloudy,130,2013-06-24 07:53:00
3:53 AM,77.0,69.1,76,29.93,9.0,SSE,10.4,-,N/A,,Partly Cloudy,150,2013-06-24 08:53:00
4:53 AM,77.0,69.1,76,29.93,9.0,SSE,9.2,-,N/A,,Partly Cloudy,150,2013-06-24 09:53:00
5:53 AM,77.0,69.1,76,29.92,9.0,SSE,11.5,-,N/A,,Partly Cloudy,160,2013-06-24 10:53:00
6:53 AM,78.1,69.1,74,29.94,8.0,South,12.7,-,N/A,,Scattered Clouds,170,2013-06-24 11:53:00
7:53 AM,79.0,70.0,74,29.95,8.0,South,15.0,-,N/A,,Mostly Cloudy,170,2013-06-24 12:53:00
8:53 AM,81.0,70.0,69,29.96,8.0,South,15.0,-,N/A,,Mostly Cloudy,180,2013-06-24 13:53:00
9:53 AM,84.9,68.0,57,29.96,9.0,South,17.3,-,N/A,,Mostly Cloudy,190,2013-06-24 14:53:00
10:53 AM,88.0,66.9,49,29.95,10.0,South,19.6,26.5,N/A,,Scattered Clouds,180,2013-06-24 15:53:00
11:53 AM,89.1,66.0,46,29.95,10.0,South,15.0,27.6,N/A,,Scattered Clouds,170,2013-06-24 16:53:00
12:53 PM,91.0,64.9,42,29.93,10.0,South,18.4,27.6,N/A,,Partly Cloudy,180,2013-06-24 17:53:00
1:53 PM,91.9,64.0,39,29.92,10.0,South,20.7,27.6,N/A,,Scattered Clouds,170,2013-06-24 18:53:00
2:53 PM,93.0,66.9,42,29.90,10.0,South,16.1,23.0,N/A,,Scattered Clouds,180,2013-06-24 19:53:00
3:53 PM,93.0,66.9,42,29.89,10.0,South,20.7,27.6,N/A,,Scattered Clouds,180,2013-06-24 20:53:00
4:53 PM,91.9,64.9,41,29.87,10.0,South,18.4,23.0,N/A,,Scattered Clouds,180,2013-06-24 21:53:00
5:53 PM,91.0,66.9,45,29.86,9.0,SSE,19.6,25.3,N/A,,Partly Cloudy,150,2013-06-24 22:53:00
6:53 PM,89.1,69.1,52,29.86,9.0,South,21.9,27.6,N/A,,Scattered Clouds,170,2013-06-24 23:53:00
7:53 PM,87.1,68.0,53,29.85,9.0,SSE,18.4,26.5,N/A,,Scattered Clouds,160,2013-06-25 00:53:00
8:53 PM,86.0,69.1,57,29.86,9.0,South,13.8,23.0,N/A,,Mostly Cloudy,170,2013-06-25 01:53:00
9:53 PM,84.0,69.1,61,29.87,10.0,SSE,13.8,-,N/A,,Mostly Cloudy,160,2013-06-25 02:53:00
10:53 PM,84.0,68.0,58,29.89,10.0,SSE,16.1,-,N/A,,Mostly Cloudy,160,2013-06-25 03:53:00
11:53 PM,82.9,68.0,60,29.88,10.0,South,12.7,25.3,N/A,,Mostly Cloudy,170,2013-06-25 04:53:00